User: anonymous   Login
Location: Blandford
(50.8667°N, 2.1667°W)
Time: 00:44:29
(UTC+00:00)
Language:

Cosmos 1340 Rocket - Orbit

View from above orbital plane
View from above orbital plane
View from above satellite
View from above satellite

Ground track
Ground track

The orbit data is extracted from the following two-line orbital elements,

1 13068U 82013B   20188.54281980 -.00000251  00000-0 -18024-4 0  9997
2 13068  81.2017  28.5973 0020359 229.3751 130.5703 15.07440125 91504
Epoch (UTC): 06 July 2020 13:01:39
Eccentricity: 0.0020359
inclination: 81.2017°
perigee height: 530 km
apogee height: 558 km
right ascension of ascending node: 28.5973°
argument of perigee: 229.3751°
revolutions per day: 15.07440125
mean anomaly at epoch: 130.5703°
orbit number at epoch: 9150

The dashed part of the orbit path shows where the satellite is in the earth's shadow,  

DLR